Wetbulb
76.82 77.49 76.67 76.84 76.14 76.16 76.01 75.13 72.77 69.16 69.23 74.51 72.30 77.81 77.51 78.46 75.34 78.51 71.80 66.11 65.93 65.32 64.88 65.06 65.59 66.19 66.59 66.97 67.30 67.79 68.44 68.72 68.66 68.28 68.13 68.85 70.14 71.05
75.94 76.59 77.41 75.89 75.97 75.56 74.81 74.37 73.63 71.42 68.05 70.42 72.97 76.03 77.88 76.60 76.60 77.94 71.86 66.93 64.86 63.40 62.09 61.53 61.77 61.98 62.11 62.33 62.60 63.36 64.48 65.73 66.75 67.23 67.23 67.22 68.16 69.36
77.07 76.57 77.03 77.82 75.30 74.28 74.60 74.27 73.78 73.19 70.30 71.58 75.81 76.90 76.92 77.02 77.19 78.11 74.58 70.51 65.62 61.76 60.98 60.15 59.93 59.69 59.56 59.48 59.60 60.33 60.90 61.40 62.32 63.86 65.46 66.26 66.59 67.47
76.27 76.41 76.09 76.00 77.24 77.05 75.30 76.19 75.76 75.69 72.96 72.50 75.14 74.78 76.32 76.76 77.55 76.89 74.71 69.30 66.05 61.54 60.79 59.56 58.84 58.89 57.96 57.55 56.97 56.95 57.19 58.44 58.84 59.79 61.79 63.90 65.03 65.32
75.97 75.96 75.96 76.00 76.36 75.99 75.75 74.98 74.74 74.83 75.58 74.11 72.39 74.84 75.89 76.43 76.13 75.16 73.89 73.02 69.09 63.32 61.12 59.88 59.04 58.69 57.23 56.53 55.89 55.19 54.60 54.72 55.51 55.74 56.03 57.36 59.21 60.90
76.66 76.69 76.41 76.27 76.29 76.54 76.48 76.27 75.24 74.62 75.58 74.02 74.31 73.27 75.37 75.77 75.70 73.89 70.06 72.78 70.36 69.64 64.27 65.10 61.22 58.14 57.52 56.21 55.47 54.67 53.80 53.10 52.87 53.86 54.41 53.77 54.57 55.80
76.50 76.56 76.62 74.61 69.07 71.29 75.15 77.60 77.09 75.72 74.91 74.89 74.08 75.48 74.91 72.80 73.64 75.43 72.31 68.92 69.04 70.02 71.08 68.29 66.25 62.64 58.47 56.57 55.64 53.81 52.97 53.00 52.18 52.12 52.75 53.26 52.31 53.14
75.46 76.13 76.21 70.46 69.64 66.77 66.77 65.26 69.52 75.75 72.73 71.43 70.91 71.29 73.57 73.37 74.52 74.14 74.75 72.69 66.89 67.47 68.17 68.13 65.71 61.98 57.60 55.55 52.56 52.12 51.92 51.66 51.62 51.58 51.31 51.53 52.26 51.62
76.12 77.12 75.60 74.78 71.89 71.61 63.58 63.54 63.71 63.85 66.35 75.40 73.13 72.98 71.32 71.05 72.95 70.80 70.93 69.56 65.62 63.41 66.73 62.08 66.75 61.75 60.53 54.98 52.03 51.52 51.03 50.80 50.97 50.79 50.67 50.25 50.23 50.84
75.77 75.39 74.72 74.05 72.88 72.59 71.61 67.27 65.16 63.81 68.23 72.40 72.40 69.93 69.56 69.90 71.88 71.51 70.54 67.05 64.89 61.45 64.85 64.50 60.20 64.57 62.76 58.43 52.25 51.38 50.72 50.74 50.91 50.65 50.09 49.33 48.43 49.01
73.76 74.40 73.06 72.73 64.06 62.20 69.09 62.69 58.63 57.03 55.50 56.17 55.87 55.64 55.89 57.13 60.97 68.35 68.06 66.47 64.59 60.93 58.34 60.78 58.51 59.46 63.57 62.93 57.58 51.64 51.58 50.47 50.10 50.27 50.18 49.37 47.84 48.67
68.63 66.98 56.46 64.78 56.56 58.71 67.37 64.86 58.51 58.80 60.42 62.30 62.25 61.01 61.52 58.75 57.71 62.01 61.89 61.04 61.09 57.53 56.20 58.83 57.48 57.62 57.54 62.04 60.14 57.60 56.92 50.97 49.99 49.65 49.60 48.80 47.39 55.43
64.50 64.06 60.91 53.91 54.19 55.36 58.90 63.97 61.50 60.96 59.37 60.96 60.43 59.99 58.16 57.06 55.81 54.75 56.01 56.75 55.31 54.02 53.04 56.92 55.32 57.02 56.41 57.01 58.97 56.34 55.41 55.17 55.42 54.86 49.46 48.06 47.77 48.49
56.35 54.08 51.99 50.51 50.08 51.71 54.67 52.68 53.08 54.71 53.64 52.92 51.88 53.89 52.54 53.33 52.34 54.65 55.36 54.41 53.63 52.95 53.29 56.09 55.46 54.04 54.68 55.53 54.92 54.80 54.25 55.55 54.50 54.47 55.00 52.32 49.39 49.26
55.57 51.45 50.43 49.40 50.25 51.91 52.04 52.89 54.21 56.36 55.77 55.80 54.26 53.32 53.37 54.28 54.33 54.50 55.07 55.10 53.67 54.16 53.65 55.67 53.63 55.82 54.78 53.25 51.96 52.31 51.50 53.49 54.08 53.63 54.01 54.58 54.38 55.03
53.31 53.20 52.38 52.01 51.20 51.50 52.53 52.89 54.48 54.97 55.69 53.54 51.67 51.39 52.74 52.04 51.68 53.76 53.09 52.67 54.52 52.70 54.69 53.90 55.13 55.71 55.12 54.75 53.71 51.61 52.17 50.83 52.72 52.93 53.02 54.38 55.04 55.09
53.10 52.59 52.04 51.80 51.49 51.94 52.48 52.64 54.23 53.11 51.77 51.54 51.30 51.67 51.65 51.92 51.31 53.69 52.90 53.28 53.17 52.97 51.95 53.56 55.39 54.66 53.95 52.96 51.81 51.35 51.37 51.48 52.25 52.44 52.94 52.12 53.77 54.36
51.51 50.91 50.31 50.50 49.49 48.81 49.02 48.25 49.78 51.48 51.35 51.81 52.81 51.08 51.82 51.26 51.31 52.38 52.34 53.27 51.32 51.83 51.39 51.64 52.31 52.62 52.51 51.90 47.95 49.69 50.79 50.46 51.76 52.79 52.69 50.85 51.57 53.37
51.33 50.38 49.73 49.70 48.85 51.92 49.12 47.82 48.35 49.31 50.72 51.68 52.13 51.18 51.01 49.95 50.63 50.93 52.22 53.07 51.68 51.89 51.26 51.68 50.53 50.08 48.90 48.04 49.89 46.63 48.95 50.33 50.55 50.58 51.19 51.06 50.70 51.74
50.72 50.79 48.87 48.27 47.60 47.41 46.97 47.11 47.17 47.60 48.56 48.80 50.62 51.13 50.23 51.28 51.10 51.23 51.21 51.40 52.07 52.42 51.98 50.56 48.96 47.71 46.96 46.48 47.31 51.40 45.65 50.33 49.29 49.32 50.00 51.69 52.72 51.68
50.24 51.64 50.65 48.84 50.07 48.57 48.87 47.73 48.06 48.28 48.75 50.03 49.94 49.60 51.09 51.62 51.32 50.40 47.58 43.55 45.31 49.83 49.88 48.91 49.45 45.12 50.79 51.47 49.31 50.27 51.08 46.54 49.93 49.57 49.98 48.84 48.81 49.40
55.77 54.05 54.32 53.75 53.04 52.76 52.17 51.33 50.58 49.12 50.15 49.78 49.96 49.68 49.89 50.78 49.51 48.81 49.63 49.48 49.63 50.34 49.41 50.27 50.81 49.98 49.53 47.40 46.63 47.89 49.03 51.40 51.27 49.14 48.70 48.17 48.78 45.63
55.46 54.92 54.57 54.47 53.41 52.84 52.08 50.73 49.81 49.38 49.39 49.00 48.56 48.29 48.48 48.52 48.98 49.60 49.31 48.76 48.68 48.57 48.65 48.53 49.28 50.26 49.04 49.05 46.30 47.63 48.52 49.60 50.64 50.68 51.51 49.04 49.20 49.17
MSLP
1020.08 1020.24 1020.07 1019.57 1019.68 1019.48 1019.50 1019.33 1018.99 1018.18 1017.54 1018.09 1018.11 1018.52 1018.71 1018.31 1019.77 1019.25 1020.61 1021.27 1021.06 1020.87 1020.40 1020.12 1019.66 1019.38 1019.20 1018.91 1018.63 1018.36 1018.03 1017.75 1017.56 1017.37 1017.15 1016.86 1016.52 1016.15
1019.88 1019.89 1020.20 1019.55 1019.64 1019.54 1019.44 1019.30 1019.26 1019.05 1018.46 1017.82 1018.10 1018.67 1019.25 1018.96 1019.50 1019.68 1020.75 1021.09 1021.72 1021.50 1021.14 1020.82 1020.43 1020.23 1020.08 1019.86 1019.64 1019.39 1019.10 1018.70 1018.26 1017.90 1017.59 1017.33 1016.96 1016.58
1019.97 1019.92 1020.04 1020.07 1019.78 1019.25 1019.34 1019.34 1019.21 1019.10 1018.75 1018.22 1018.48 1018.84 1019.76 1019.82 1019.50 1019.35 1020.25 1020.58 1021.94 1022.05 1021.75 1021.46 1021.13 1020.91 1020.68 1020.44 1020.24 1020.09 1019.88 1019.55 1019.13 1018.76 1018.33 1017.98 1017.69 1017.38
1019.69 1019.79 1019.79 1019.63 1019.99 1019.92 1019.61 1019.52 1019.24 1019.30 1019.40 1018.96 1018.81 1018.86 1019.74 1019.59 1019.69 1019.80 1019.20 1020.46 1021.61 1022.52 1022.32 1022.19 1021.97 1021.78 1021.60 1021.41 1021.14 1020.78 1020.45 1020.23 1020.02 1019.70 1019.24 1018.80 1018.38 1017.95
1019.35 1019.42 1019.54 1019.60 1019.67 1019.57 1019.76 1019.39 1019.13 1019.45 1020.02 1019.85 1019.36 1018.91 1019.08 1019.23 1020.01 1019.94 1019.84 1020.40 1021.06 1022.23 1022.19 1022.46 1022.45 1022.50 1022.44 1022.22 1021.99 1021.77 1021.50 1021.22 1020.88 1020.38 1020.00 1019.75 1019.54 1019.32
1019.09 1019.26 1019.33 1019.44 1019.55 1019.83 1019.96 1019.97 1019.69 1019.80 1020.20 1019.77 1019.51 1018.63 1019.30 1019.40 1019.61 1019.89 1019.83 1019.86 1020.40 1020.62 1021.60 1021.71 1022.19 1022.62 1022.72 1022.77 1022.73 1022.63 1022.39 1022.03 1021.67 1021.30 1021.10 1020.67 1020.18 1019.83
1018.71 1019.16 1019.23 1019.48 1019.96 1020.16 1020.20 1019.86 1020.08 1020.07 1020.14 1020.03 1019.53 1019.16 1019.53 1018.84 1019.02 1019.85 1020.25 1020.34 1020.84 1020.41 1020.42 1020.47 1021.14 1021.74 1022.70 1023.10 1023.26 1023.46 1023.14 1022.79 1022.38 1021.96 1021.68 1021.41 1021.17 1020.84
1018.55 1018.66 1019.07 1019.67 1020.27 1020.35 1020.35 1020.57 1020.82 1020.42 1020.40 1020.21 1019.87 1019.82 1019.65 1019.51 1019.34 1019.69 1019.96 1020.37 1020.17 1021.05 1020.63 1020.56 1021.15 1021.88 1023.05 1023.54 1024.31 1024.03 1023.92 1023.60 1023.24 1022.91 1022.67 1022.28 1021.70 1021.36
1018.36 1018.51 1018.81 1019.19 1019.86 1020.36 1020.56 1020.55 1020.87 1020.72 1020.60 1019.97 1019.95 1020.15 1020.27 1020.68 1020.13 1020.15 1020.15 1020.20 1020.44 1021.09 1021.20 1020.64 1020.81 1021.72 1022.64 1024.24 1024.80 1024.56 1024.22 1023.77 1023.41 1023.19 1023.11 1022.65 1022.60 1022.17
1018.23 1018.52 1018.93 1019.33 1019.68 1019.88 1020.13 1020.69 1020.99 1021.24 1021.03 1019.86 1020.28 1020.83 1020.82 1020.78 1020.50 1020.24 1020.75 1021.47 1021.58 1021.57 1021.75 1020.37 1021.34 1020.94 1022.06 1023.52 1024.38 1024.37 1024.35 1024.28 1023.98 1023.32 1022.70 1022.82 1022.25 1022.25
1018.63 1018.76 1019.04 1019.37 1019.94 1020.41 1020.30 1020.91 1021.46 1022.02 1022.29 1022.40 1022.54 1022.63 1022.42 1022.09 1021.52 1020.27 1020.40 1020.35 1020.02 1021.32 1022.39 1021.48 1021.55 1021.43 1021.43 1022.04 1023.22 1023.79 1023.83 1023.66 1023.73 1023.72 1023.19 1022.51 1022.24 1021.40
1019.39 1019.77 1019.86 1019.88 1020.29 1020.49 1020.68 1020.74 1021.19 1021.64 1021.72 1022.14 1021.74 1022.04 1022.01 1022.28 1022.35 1021.92 1021.27 1020.74 1020.80 1021.36 1023.24 1022.48 1021.78 1021.65 1020.77 1021.55 1022.08 1022.77 1022.73 1023.55 1023.54 1023.11 1023.29 1022.76 1022.93 1021.17
1019.37 1020.10 1020.77 1020.80 1020.91 1020.92 1020.88 1021.37 1021.14 1021.58 1022.10 1021.99 1022.25 1022.16 1022.54 1022.97 1023.23 1023.59 1023.16 1022.61 1022.68 1022.89 1024.15 1023.69 1022.63 1021.65 1021.59 1021.33 1021.66 1022.43 1022.49 1022.93 1023.28 1023.22 1023.15 1023.13 1022.71 1022.88
1020.97 1021.61 1021.73 1021.62 1021.62 1021.93 1021.80 1021.91 1021.77 1022.45 1022.51 1022.77 1023.14 1023.33 1023.50 1023.64 1024.11 1024.08 1024.33 1024.34 1024.66 1024.84 1024.96 1024.41 1023.75 1022.83 1022.27 1021.50 1021.63 1021.97 1022.57 1022.79 1022.70 1022.82 1023.25 1022.87 1022.53 1022.98
1021.44 1022.14 1022.47 1022.42 1022.63 1022.86 1022.84 1022.67 1022.75 1023.19 1023.21 1023.32 1023.49 1023.51 1023.65 1024.03 1024.25 1024.16 1024.42 1024.93 1024.91 1024.82 1024.78 1024.95 1024.63 1023.71 1023.07 1022.71 1022.72 1022.80 1023.05 1022.73 1022.99 1022.97 1022.90 1022.37 1022.24 1022.06
1022.21 1022.53 1022.78 1022.83 1022.93 1023.12 1023.43 1023.31 1023.05 1023.13 1023.03 1023.05 1023.38 1023.77 1023.94 1023.86 1023.99 1023.75 1023.65 1023.92 1023.58 1023.95 1024.52 1024.76 1024.74 1024.26 1023.17 1023.22 1023.21 1023.03 1023.20 1022.98 1023.05 1023.33 1023.34 1022.23 1021.92 1021.97
1022.45 1022.80 1023.10 1023.28 1023.51 1023.54 1023.57 1023.69 1023.45 1023.66 1023.46 1023.73 1023.71 1023.62 1023.55 1023.84 1023.87 1023.59 1023.74 1023.47 1023.40 1023.97 1023.74 1023.97 1024.90 1024.91 1024.26 1024.31 1023.47 1023.67 1023.66 1023.46 1023.45 1023.65 1023.42 1022.38 1021.78 1021.82
1022.84 1023.11 1023.36 1023.41 1023.72 1023.90 1023.85 1023.72 1023.54 1023.50 1023.67 1023.57 1023.49 1023.94 1023.45 1023.85 1023.77 1023.80 1023.72 1023.62 1023.64 1024.26 1024.06 1024.43 1024.42 1023.84 1023.91 1025.06 1025.45 1024.41 1023.94 1023.77 1023.61 1023.50 1023.35 1022.49 1022.00 1021.89
1022.82 1022.74 1023.35 1023.36 1023.33 1023.23 1023.87 1024.04 1023.88 1024.26 1023.99 1023.57 1023.53 1023.91 1023.88 1024.07 1024.02 1023.93 1023.82 1024.08 1024.13 1023.96 1024.20 1024.82 1024.83 1024.43 1023.44 1023.55 1025.14 1025.87 1024.96 1024.33 1023.83 1023.40 1023.44 1022.83 1022.22 1022.06
1022.84 1022.70 1023.20 1023.61 1023.93 1023.83 1023.78 1024.12 1024.32 1024.53 1024.39 1024.68 1024.84 1024.33 1024.05 1023.68 1024.00 1024.27 1024.46 1024.76 1024.66 1024.55 1024.51 1024.92 1025.39 1025.43 1024.87 1024.92 1024.67 1024.38 1025.33 1024.83 1024.59 1024.03 1023.34 1022.79 1021.94 1022.05
1022.28 1022.13 1022.71 1023.39 1023.31 1023.86 1023.84 1024.13 1024.41 1024.24 1024.27 1024.54 1024.55 1024.39 1024.40 1024.37 1024.66 1024.94 1025.73 1025.93 1025.95 1025.37 1024.95 1025.16 1025.96 1026.60 1025.52 1024.68 1024.03 1023.65 1024.12 1025.06 1024.89 1024.88 1023.98 1023.30 1022.84 1022.32
1021.09 1021.63 1021.80 1022.23 1022.84 1023.20 1023.34 1023.53 1023.70 1023.93 1024.16 1024.44 1024.63 1024.59 1024.77 1024.98 1025.11 1025.27 1025.40 1025.56 1025.66 1025.54 1025.47 1025.57 1025.82 1025.36 1025.16 1025.02 1024.80 1024.63 1024.17 1023.75 1023.40 1023.78 1023.84 1024.20 1023.49 1022.73
1020.73 1021.10 1021.57 1021.95 1022.65 1023.00 1023.31 1023.61 1023.67 1023.63 1023.94 1024.38 1024.94 1025.17 1025.32 1025.13 1025.50 1025.56 1025.68 1025.91 1025.82 1025.84 1025.82 1025.29 1025.26 1025.01 1024.75 1024.66 1024.84 1024.44 1024.21 1023.46 1022.87 1022.64 1022.29 1023.15 1023.15 1022.71
Wind_Speed
5 4 6 3 4 4 4 4 6 9 7 6 4 6 4 1 7 9 10 15 17 17 18 18 20 20 20 20 18 16 15 14 13 13 13 13 14 14
7 4 6 6 5 5 5 5 5 7 8 6 4 5 6 9 7 7 11 15 18 18 19 20 22 23 23 23 22 22 21 19 17 15 13 13 13 13
7 6 7 6 8 5 5 5 5 5 7 6 1 5 2 5 5 2 9 10 11 16 19 20 21 23 23 23 23 23 23 22 21 19 17 15 15 15
9 8 9 8 8 8 8 7 8 6 7 6 5 3 1 0 3 1 3 10 11 14 18 20 22 22 23 23 23 22 22 22 23 23 23 20 18 17
9 9 9 9 9 9 6 8 6 5 3 5 7 5 2 1 4 4 4 10 9 17 19 18 18 18 21 20 21 21 20 21 21 21 21 21 22 23
10 10 10 9 9 9 7 8 8 6 6 7 6 3 3 4 4 5 5 2 7 6 12 10 13 20 17 19 21 21 19 19 19 18 19 20 20 20
9 10 10 5 7 2 6 6 7 7 6 6 8 2 6 3 1 5 5 5 3 4 2 6 4 7 9 15 15 20 20 20 19 18 16 15 17 18
10 10 8 5 4 4 5 7 6 6 5 4 5 4 3 3 1 3 5 5 5 3 3 3 3 6 8 9 15 18 19 20 20 19 18 16 12 15
11 8 8 5 4 6 8 11 8 5 4 5 5 0 2 4 3 3 3 2 4 3 5 4 1 5 6 9 13 15 17 17 17 19 20 17 14 8
7 7 9 8 7 7 7 6 8 10 8 0 4 5 5 1 3 2 4 3 3 4 6 3 2 2 4 7 8 11 10 11 12 14 16 18 15 7
6 7 7 8 9 5 8 10 9 8 13 16 15 13 13 13 9 4 4 5 4 3 6 5 3 2 4 2 8 10 7 6 6 7 11 15 21 7
5 3 12 2 6 7 7 9 9 8 10 9 9 8 8 11 15 10 4 4 2 5 6 5 2 3 4 5 3 3 2 7 5 6 7 9 14 8
5 4 5 7 5 3 3 5 7 8 6 8 5 6 7 8 8 8 9 8 4 5 7 7 4 2 3 2 3 4 5 6 8 6 5 7 5 7
6 4 5 14 13 9 7 10 14 8 5 6 5 3 3 4 5 7 9 9 8 8 6 7 3 4 4 3 2 4 6 5 7 7 9 6 6 6
6 10 12 14 13 11 11 10 8 4 4 4 4 4 4 5 6 5 6 6 7 5 6 6 6 4 4 4 5 5 7 6 7 8 8 7 6 6
15 6 9 11 11 8 5 4 4 3 2 5 6 5 4 4 2 1 3 3 2 5 6 5 4 4 1 2 2 4 5 5 7 7 9 6 5 6
9 6 5 5 5 4 4 4 6 4 5 3 4 5 5 4 3 3 2 2 2 2 3 3 2 1 4 4 3 4 4 4 5 6 8 6 5 5
4 4 3 4 4 4 5 4 4 5 4 2 4 3 4 4 4 3 2 2 3 2 3 4 4 4 6 4 7 5 5 6 6 6 7 7 6 5
2 3 3 3 5 5 4 3 3 2 2 3 5 5 4 4 3 3 2 1 2 3 3 3 4 5 5 5 7 6 6 6 6 6 5 5 6 7
4 6 5 3 3 3 4 3 4 3 3 3 3 2 1 4 3 2 1 1 1 1 2 4 5 5 5 5 6 3 1 6 7 7 7 8 6 8
4 6 7 5 4 6 6 6 5 4 5 4 4 4 3 2 2 3 5 5 5 2 1 4 5 3 6 5 4 4 3 6 2 5 7 7 8 9
5 7 6 7 6 6 6 7 6 6 6 5 3 4 3 2 3 3 2 1 1 2 2 2 2 3 3 4 6 7 6 6 11 18 15 7 7 8
5 5 4 5 5 5 5 5 5 6 5 5 5 3 3 3 3 2 2 2 1 1 1 3 3 2 4 3 2 6 7 9 8 9 5 18 18 19
Wind_Direction
224 239 269 243 253 266 276 298 314 308 317 156 311 109 308 92 32 53 71 46 40 37 41 42 43 43 43 42 41 40 39 36 34 37 35 35 35 39
237 219 263 267 245 257 277 281 282 292 298 327 304 24 5 329 89 102 105 78 45 51 53 52 51 49 45 43 41 38 35 33 31 33 36 37 38 39
253 248 241 265 272 258 251 264 272 267 281 303 251 131 299 327 1 78 169 86 74 63 63 60 57 56 54 50 45 41 38 37 36 34 34 37 37 36
235 243 247 246 223 251 269 268 298 317 284 280 347 298 196 263 62 358 74 99 102 87 74 65 60 55 51 47 46 46 48 46 45 43 40 39 40 42
245 243 247 250 248 273 283 287 239 232 273 298 288 251 250 121 158 148 174 129 119 123 105 83 71 64 56 49 44 40 39 39 38 43 45 45 43 41
248 248 251 256 257 250 260 261 261 258 239 260 275 240 216 195 181 176 165 165 154 136 62 85 106 85 64 66 47 43 39 38 36 36 35 39 45 47
235 246 243 284 57 342 265 251 257 237 236 263 265 160 231 217 166 157 176 143 128 327 169 145 74 58 59 57 49 44 41 38 35 35 32 33 37 39
246 232 224 162 134 118 124 71 35 248 222 225 292 322 349 249 164 234 177 198 193 86 261 88 40 93 51 57 48 48 42 39 36 30 26 24 37 48
241 241 227 209 212 155 125 117 85 79 20 246 234 249 57 0 357 263 20 9 47 58 265 129 296 104 84 89 55 49 46 44 39 32 18 17 8 22
242 215 220 208 210 182 161 79 57 38 355 92 99 94 82 16 337 71 78 101 133 73 332 280 16 146 142 118 107 78 62 42 37 35 29 7 359 342
217 219 212 195 147 206 153 120 97 93 64 76 95 98 68 41 20 254 184 249 218 107 26 305 71 294 200 128 134 131 115 95 67 56 41 18 349 319
199 165 38 44 162 194 162 147 134 147 137 137 125 97 66 77 40 29 346 301 299 173 47 283 328 332 207 124 109 34 317 48 187 119 73 54 359 5
158 137 72 41 104 106 176 168 138 110 105 123 88 81 53 51 44 35 28 9 9 81 40 296 19 315 285 332 128 40 12 25 359 6 136 68 40 13
114 85 59 61 53 59 72 87 83 87 96 100 100 95 115 102 89 66 59 61 58 50 25 356 328 1 328 311 20 31 1 27 9 7 352 352 207 153
96 104 98 87 84 70 73 91 106 101 103 117 109 99 73 92 119 118 101 113 95 67 61 25 347 351 347 18 357 11 339 352 11 4 349 341 4 355
115 93 90 94 94 108 81 68 81 71 78 132 137 138 129 148 142 150 158 172 141 122 100 61 25 328 359 58 335 3 358 338 357 358 333 330 347 10
122 128 125 115 104 101 118 132 135 130 130 137 144 170 148 147 149 153 134 143 97 39 70 76 89 37 48 357 7 15 343 337 354 350 314 331 343 6
79 79 78 93 96 128 140 137 112 135 106 121 129 160 145 155 144 119 101 95 107 71 37 14 345 277 185 118 346 7 356 345 353 329 324 337 350 24
73 109 135 144 160 152 97 102 108 118 252 137 153 160 149 118 214 138 113 142 114 85 74 26 353 345 325 344 125 329 351 344 345 359 340 339 327 355
171 148 154 115 119 89 120 101 104 118 40 92 288 85 151 135 140 114 66 26 80 57 77 45 32 9 357 0 326 25 23 335 345 338 339 322 334 257
148 165 159 159 156 152 142 141 161 158 159 169 177 149 125 133 121 98 82 24 313 351 30 39 44 243 287 291 263 358 119 191 253 305 324 322 338 322
210 159 178 156 177 170 171 167 155 166 158 172 156 140 134 140 139 159 144 111 37 17 22 18 353 1 353 337 333 315 308 332 230 209 224 265 334 320
174 173 161 163 163 170 170 176 177 171 170 160 171 161 167 159 175 135 132 136 198 226 2 319 326 261 294 305 307 305 313 307 324 328 308 204 230 239